This demonstration page uses our WeatherBlox Daily Observations layout. Learn more.

Left ArrowRight Arrow

44.89941, -97.11507

Hourly Observations for July 8, 2020

Temp ( °F °C ) Dew Point ( °F °C ) Humidity (%) Winds ( mph kmh ) Pressure ( in mb ) Visibility ( mi km ) Precip ( " mm )
12:53 am 00:53 Mostly Cloudy 75 23.9 68 20 79 79 SSE 17 28 29.75 1007 10 16 0.00 0.00
1:53 am 01:53 Mostly Clear 75 23.9 70 21.1 84 84 S 16 26 29.71 1006 10 16 0.00 0.00
2:25 am 02:25 Partly Cloudy with Nearby Thunderstorms 76 24.4 71 21.7 85 85 S 15 24 29.67 1005 10 16 0.00 0.00
2:40 am 02:40 Clear 76 24.4 71 21.7 85 85 S 17 28 29.66 1004 10 16 0.00 0.00
2:53 am 02:53 Clear 76 24.4 71 21.7 85 85 S 17 28 29.70 1006 10 16 0.00 0.00
3:53 am 03:53 Clear 76 24.4 71 21.7 85 85 SSE 14 22 29.69 1005 10 16 0.00 0.00
4:53 am 04:53 Clear 76 24.4 70 21.1 82 82 SSE 18 30 29.65 1004 10 16 0.00 0.00
5:53 am 05:53 Partly Cloudy 77 25 69 20.6 77 77 NW 14 22 29.75 1008 10 16 0.00 0.00
6:53 am 06:53 Mostly Sunny 75 23.9 69 20.6 82 82 ESE 5 7 29.72 1006 10 16 0.00 0.00
7:53 am 07:53 Sunny 78 25.6 69 20.6 74 74 ESE 9 15 29.71 1006 10 16 0.00 0.00
8:53 am 08:53 Sunny 80 26.7 70 21.1 71 71 S 10 17 29.71 1006 10 16 0.00 0.00
9:53 am 09:53 Sunny 81 27.2 71 21.7 72 72 SSE 14 22 29.70 1006 10 16 0.00 0.00
10:53 am 10:53 Sunny 83 28.3 70 21.1 65 65 S 16 26 29.70 1006 10 16 0.00 0.00
11:53 am 11:53 Sunny 84 28.9 71 21.7 65 65 S 10 17 29.70 1006 10 16 0.00 0.00
12:53 pm 12:53 Sunny 86 30 71 21.7 61 61 S 12 19 29.69 1005 10 16 0.00 0.00
1:53 pm 13:53 Sunny 88 31.1 73 22.8 61 61 S 14 22 29.68 1005 10 16 0.00 0.00
2:53 pm 14:53 Sunny 86 30 73 22.8 65 65 S 13 20 29.67 1005 10 16 0.00 0.00
3:53 pm 15:53 Sunny 88 31.1 72 22.2 59 59 S 15 24 29.67 1005 10 16 0.00 0.00
4:53 pm 16:53 Sunny 89 31.7 71 21.7 55 55 SSW 17 28 29.67 1005 10 16 0.00 0.00
5:53 pm 17:53 Sunny 88 31.1 72 22.2 59 59 SSW 15 24 29.67 1005 10 16 0.00 0.00
6:53 pm 18:53 Partly Cloudy 87 30.6 75 23.9 67 67 SSW 13 20 29.67 1005 10 16 0.00 0.00
7:53 pm 19:53 Mostly Cloudy 85 29.4 76 24.4 75 75 SSW 10 17 29.67 1005 10 16 0.00 0.00
8:53 pm 20:53 Partly Cloudy 82 27.8 75 23.9 79 79 SSW 9 15 29.67 1005 10 16 0.00 0.00
9:40 pm 21:40 Partly Cloudy with Nearby Thunderstorms 81 27.2 74 23.3 79 79 S 9 15 29.62 1003 10 16 0.00 0.00
9:48 pm 21:48 Mostly Clear with Thunderstorms 81 27 73 23 79 79 S 8 13 29.64 1004 10 16 0.00 0.00
9:53 pm 21:53 Partly Cloudy with Thunderstorms 81 27.2 74 23.3 79 79 S 8 13 29.68 1005 10 16 0.00 0.00
10:10 pm 22:10 Mostly Clear with Nearby Thunderstorms 80 26.7 74 23.3 82 82 SSW 8 13 29.64 1004 10 16 0.00 0.00
10:40 pm 22:40 Mostly Cloudy with Thunderstorms 79 26.1 74 23.3 85 85 SSW 8 13 29.64 1004 10 16 0.00 0.00
10:53 pm 22:53 Partly Cloudy with Thunderstorms 76 24.4 66 18.9 72 72 W 10 17 29.66 1004 10 16 0.00 0.00
11:11 pm 23:11 Mostly Cloudy with Nearby Thunderstorms 70 21.1 61 16.1 73 73 WSW 23 37 29.71 1006 10 16 0.00 0.00
11:41 pm 23:41 Cloudy with Thunderstorms 70 21.1 62 16.7 76 76 VRB 6 9 29.72 1006 6 10 0.04 1.02
11:53 pm 23:53 Cloudy with Strong Thunderstorms 69 20.6 63 17.2 81 81 WSW 7 11 29.75 1007 3 5 0.11 2.79

Powered by AerisWeather